Tampa, FL

12:11 PM EDT on July 21, 2017 (GMT -0400)
Tampa International

Weather History for KTPA - July, 2013

Change the Weather History Date:

Tuesday, July 2, 2013

  Actual Average Record
Temperature  
Mean Temperature 81 °F 83 °F  
Max Temperature 88 °F 90 °F 96 °F (1902)
Min Temperature 73 °F 76 °F 69 °F (1955)
Degree Days  
Heating Degree Days 0 0  
Month to date heating degree days 0 0  
Since 1 June heating degree days 0 0  
Since 1 July heating degree days 0 0  
Cooling Degree Days 16 18  
Month to date cooling degree days 28 36  
Year to date cooling degree days 1526 1429  
Since 1 June cooling degree days 551 552  
Growing Degree Days 30 (Base 50)    
Moisture  
Dew Point 73 °F    
Average Humidity 78    
Maximum Humidity 94    
Minimum Humidity 61    
Precipitation  
Precipitation 0.19 in 0.26 in 2.63 in (1909)
Month to date precipitation 1.06 0.51  
Year to date precipitation 21.48 19.39  
Sea Level Pressure  
Sea Level Pressure 30.04 in    
Wind  
Wind Speed 7 mph (SE)    
Max Wind Speed 20 mph    
Max Gust Speed 28 mph    
Visibility 10 miles    
Events Rain    
T = Trace of Precipitation, MM = Missing Value Source: NWS Daily Summary

Daily Weather History Graph

Daily Weather History Graph

Search for Another Location

Airport or City:

Trip Planner

Search our weather history database for the weather conditions in past years. The results will help you decide how hot, cold, wet, or windy it might be!

Date:

Astronomy

Jul. 02, 2013 Rise Set
Actual Time 6:37 AM EDT 8:30 PM EDT
Civil Twilight 6:11 AM EDT 8:57 PM EDT
Nautical Twilight 5:39 AM EDT 9:29 PM EDT
Astronomical Twilight 5:05 AM EDT 10:03 PM EDT
Moon 2:25 AM EDT (7/2) 3:54 PM EDT (7/2)
Length of Visible Light 14h 45m
Length of Day
13h 52m
Waning Crescent, 26% of the Moon is Illuminated
Jul 2
Waning Crescent
Jul 8
New
Jul 15
First Quarter
Jul 22
Full
Jul 29
Last Quarter

Hourly Weather History & Observations

Time (EDT) Temp. Heat Index Dew Point Humidity Pressure Visibility Wind Dir Wind Speed Gust Speed Precip Events Conditions
12:53 AM 73.0 °F - 72.0 °F 96% 30.00 in 6.0 mi ESE 9.2 mph - 0.33 in Rain Light Rain
1:49 AM 75.2 °F - 73.4 °F 94% 29.99 in 10.0 mi SE 9.2 mph - 0.05 in   Overcast
1:53 AM 75.0 °F - 73.0 °F 94% 29.99 in 10.0 mi SE 6.9 mph - 0.05 in   Overcast
2:39 AM 75.2 °F - 73.4 °F 94% 29.98 in 8.0 mi SE 8.1 mph - 0.01 in Rain Light Rain
2:53 AM 75.0 °F - 73.0 °F 94% 29.98 in 10.0 mi SE 8.1 mph - 0.01 in   Overcast
3:32 AM 75.2 °F - 71.6 °F 89% 30.00 in 5.0 mi South 19.6 mph 27.6 mph 0.03 in Rain Light Rain
3:53 AM 73.9 °F - 72.0 °F 93% 29.99 in 8.0 mi SSE 9.2 mph - 0.06 in Rain Light Rain
4:53 AM 75.0 °F - 73.0 °F 94% 29.99 in 10.0 mi SSE 9.2 mph - 0.06 in   Overcast
5:53 AM 75.0 °F - 73.0 °F 94% 30.00 in 10.0 mi SSE 4.6 mph - N/A   Overcast
6:53 AM 75.9 °F - 73.0 °F 91% 30.02 in 10.0 mi SSE 4.6 mph - 0.00 in   Overcast
7:53 AM 75.9 °F - 73.0 °F 91% 30.04 in 10.0 mi SSE 3.5 mph - 0.02 in Rain Light Rain
8:53 AM 77.0 °F - 73.9 °F 90% 30.06 in 10.0 mi Calm Calm - 0.01 in   Mostly Cloudy
10:53 AM 81.0 °F 86.2 °F 73.9 °F 79% 30.06 in 10.0 mi SE 4.6 mph - N/A   Mostly Cloudy
11:53 AM 84.0 °F 91.9 °F 75.0 °F 74% 30.05 in 10.0 mi SE 8.1 mph - N/A   Mostly Cloudy
12:53 PM 84.9 °F 92.1 °F 73.9 °F 69% 30.07 in 10.0 mi SSE 6.9 mph - N/A   Mostly Cloudy
1:53 PM 87.1 °F 94.5 °F 73.0 °F 63% 30.06 in 10.0 mi South 11.5 mph - N/A   Mostly Cloudy
2:53 PM 86.0 °F 93.8 °F 73.9 °F 67% 30.04 in 10.0 mi SSW 9.2 mph - N/A   Mostly Cloudy
3:53 PM 86.0 °F 92.2 °F 72.0 °F 63% 30.02 in 10.0 mi South 9.2 mph - N/A   Overcast
4:53 PM 81.0 °F 85.2 °F 72.0 °F 74% 30.06 in 10.0 mi SE 19.6 mph 26.5 mph N/A   Overcast
5:53 PM 80.1 °F 83.6 °F 71.1 °F 74% 30.03 in 10.0 mi SE 5.8 mph - N/A   Overcast
6:53 PM 79.0 °F - 71.1 °F 77% 30.06 in 10.0 mi SSE 5.8 mph - N/A   Overcast
7:53 PM 78.1 °F - 71.1 °F 79% 30.09 in 10.0 mi Variable 4.6 mph - N/A   Overcast
8:53 PM 77.0 °F - 71.1 °F 82% 30.09 in 10.0 mi ESE 4.6 mph - N/A   Mostly Cloudy
9:53 PM 77.0 °F - 71.1 °F 82% 30.09 in 10.0 mi ESE 4.6 mph - N/A   Mostly Cloudy
10:53 PM 77.0 °F - 72.0 °F 84% 30.09 in 10.0 mi East 3.5 mph - N/A   Mostly Cloudy
11:53 PM 77.0 °F - 72.0 °F 84% 30.10 in 10.0 mi Variable 4.6 mph - N/A   Overcast